Date,TemperatureHighF,TemperatureAvgF,TemperatureLowF,DewpointHighF,DewpointAvgF,DewpointLowF,HumidityHigh,HumidityAvg,HumidityLow,PressureMaxIn,PressureMinIn,WindSpeedMaxMPH,WindSpeedAvgMPH,GustSpeedMaxMPH,PrecipitationSumIn
2013-1-1,48,36,31,-100,-100,-100,0,0,100,28.85,28.26,16,8,0,0.00
2013-1-2,48,43,36,-100,-100,-100,0,0,100,28.99,28.85,19,9,0,0.00
2013-1-3,50,48,44,-100,-100,-100,0,0,100,29.33,28.98,21,10,0,0.00
2013-1-4,48,46,43,-100,-100,-100,0,0,100,29.39,29.32,19,11,0,0.00
2013-1-5,47,45,41,-100,-100,-100,0,0,100,29.36,29.21,20,10,0,0.00
2013-1-6,47,42,35,-100,-100,-100,0,0,100,29.36,29.13,16,5,0,0.00
2013-1-7,47,45,44,-100,-100,-100,0,0,100,29.13,28.95,12,6,0,0.00
2013-1-8,48,43,36,-100,-100,-100,0,0,100,29.09,28.91,16,6,0,0.00
2013-1-9,48,37,33,-100,-100,-100,0,0,100,29.08,28.97,9,1,0,0.00
2013-1-10,40,36,29,-100,-100,-100,0,0,100,28.98,28.87,9,1,0,0.00
2013-1-11,40,34,29,-100,-100,-100,0,0,100,28.94,28.88,6,-3,0,0.00
2013-1-12,44,32,26,-100,-100,-100,0,0,100,29.04,28.86,11,-2,0,0.00
2013-1-13,32,30,26,-100,-100,-100,0,0,100,29.04,28.90,8,-3,0,0.00
2013-1-14,42,32,28,-100,-100,-100,0,0,100,28.89,28.66,12,-7,0,0.00
2013-1-15,43,28,16,-100,-100,-100,0,0,100,28.83,28.74,9,-15,0,0.00
2013-1-16,30,25,17,-100,-100,-100,0,0,100,28.89,28.76,5,0,0,0.00
2013-1-17,34,29,27,-100,-100,-100,0,0,100,28.90,28.74,16,-6,0,0.00
2013-1-18,38,29,25,-100,-100,-100,0,0,100,28.74,28.49,22,-1,0,0.00
2013-1-19,38,29,24,-100,-100,-100,0,0,100,28.65,28.50,20,-7,0,0.00
2013-1-20,30,29,27,-100,-100,-100,0,0,100,28.63,28.46,15,6,0,0.00
2013-1-21,32,30,29,-100,-100,-100,0,0,100,28.46,28.40,28,9,0,0.00
2013-1-22,33,31,28,-100,-100,-100,0,0,100,28.76,28.44,26,6,0,0.00
2013-1-23,35,30,23,-100,-100,-100,0,0,100,28.87,28.75,8,1,0,0.00
2013-1-24,37,31,28,-100,-100,-100,0,0,100,28.98,28.87,11,2,0,0.00
2013-1-25,34,32,30,-100,-100,-100,0,0,100,28.89,28.33,15,7,0,0.00
2013-1-26,44,35,29,-100,-100,-100,0,0,100,28.51,27.94,26,-5,0,0.00
2013-1-27,42,37,33,-100,-100,-100,0,0,100,28.18,27.77,24,13,0,0.00
2013-1-28,42,38,33,-100,-100,-100,0,0,100,28.31,27.89,23,15,0,0.00
2013-1-29,48,42,38,-100,-100,-100,0,0,100,28.30,27.95,23,12,0,0.00
2013-1-31,38,36,36,-100,-100,-100,0,0,100,28.46,28.43,15,-14,0,0.00